Location: Montreal
(45.5087°N, 73.5540°W)
Time: 08:25:02
(UTC-05:00)

N. Korean satellite - Visible Passes

Search period start: 17 February 2019 00:00
Search period end: 27 February 2019 00:00
Orbit: 457 x 510 km, 97.2° (Epoch: 16 February)

Date Brightness Start Highest point End Pass type
(mag) Time Alt. Az. Time Alt. Az. Time Alt. Az.
17 Feb 8.9 05:34:26 10° NE 05:37:28 27° E 05:40:26 10° SSE visible
18 Feb 10.0 05:10:39 10° ENE 05:12:33 14° E 05:14:26 10° SE visible
19 Feb 10.4 18:31:20 10° WSW 18:32:46 12° W 18:34:11 10° WNW visible
20 Feb 7.7 05:53:22 10° NNE 05:56:45 47° E 06:00:04 10° S visible
20 Feb 9.6 18:04:55 10° SSW 18:07:50 22° W 18:10:44 10° NW visible
21 Feb 9.2 05:29:03 10° NE 05:31:54 23° E 05:34:41 10° SSE visible
22 Feb 10.1 05:05:31 10° ENE 05:06:56 12° E 05:08:21 10° ESE visible
23 Feb 10.2 18:25:20 10° WSW 18:27:10 13° W 18:29:01 10° WNW visible
24 Feb 8.1 05:47:52 10° NNE 05:51:09 40° E 05:54:23 10° S visible
24 Feb 9.4 17:59:12 10° SSW 18:02:15 25° W 18:05:17 10° NW visible
25 Feb 9.5 05:23:38 10° NE 05:26:16 20° E 05:28:52 10° SE visible
26 Feb 10.4 05:00:43 10° E 05:01:18 10° E 05:01:52 10° E visible
